When you browse on this site, cookies collect data to enhance your experience and personalize the content and advertising you see.
Visit our Privacy Policy to learn more. By continuing to use the site, you agree to this use of cookies and data.
  • In Denmark
  • List of Countries
  • For 7 days
  • Water Temperature
  • Satellite Maps
  • Weather Map
  • Weather Widgets
  • user-avatar
    Login

    Hourly Weather Chasovnya

    Today, 20 July, Saturday

    Time Temperature Precipitation Wind Pressure Humidity
    00:00 +12°C° 0 mm 4 mps 737 mmHg 93%
    01:00 +12°C° 0 mm 4 mps 737 mmHg 94%
    02:00 +12°C° 0 mm 4 mps 737 mmHg 94%
    03:00 +12°C° 0 mm 4 mps 738 mmHg 91%
    04:00 +13°C° 0 mm 4 mps 738 mmHg 88%
    05:00 +13°C° 0 mm 4 mps 738 mmHg 84%
    06:00 +14°C° 0 mm 5 mps 738 mmHg 81%
    07:00 +16°C° 0 mm 5 mps 738 mmHg 79%
    08:00 +17°C° 0 mm 6 mps 738 mmHg 77%
    09:00 +19°C° 0 mm 6 mps 739 mmHg 72%
    10:00 +21°C° 0 mm 6 mps 739 mmHg 68%
    11:00 +22°C° 0 mm 7 mps 739 mmHg 64%
    12:00 +22°C° 0.2 mm 6 mps 739 mmHg 64%
    13:00 +22°C° 0.2 mm 6 mps 739 mmHg 64%
    14:00 +22°C° 0.2 mm 6 mps 739 mmHg 64%
    15:00 +22°C° 0.1 mm 5 mps 739 mmHg 67%
    16:00 +22°C° 0.1 mm 4 mps 740 mmHg 69%
    17:00 +22°C° 0.1 mm 4 mps 740 mmHg 71%
    18:00 +20°C° 0 mm 3 mps 740 mmHg 74%
    19:00 +18°C° 0 mm 3 mps 740 mmHg 77%
    20:00 +17°C° 0 mm 3 mps 740 mmHg 79%
    21:00 +16°C° 0 mm 3 mps 740 mmHg 81%
    22:00 +14°C° 0 mm 3 mps 740 mmHg 83%
    23:00 +13°C° 0 mm 3 mps 740 mmHg 84%

    Tomorrow, 21 July, Sunday

    Time Temperature Precipitation Wind Pressure Humidity
    00:00 +13°C° 0 mm 3 mps 740 mmHg 86%
    01:00 +12°C° 0 mm 3 mps 741 mmHg 88%
    02:00 +12°C° 0 mm 3 mps 741 mmHg 89%
    03:00 +12°C° 0 mm 3 mps 741 mmHg 89%
    04:00 +12°C° 0 mm 3 mps 741 mmHg 89%
    05:00 +13°C° 0 mm 3 mps 741 mmHg 89%
    06:00 +14°C° 0 mm 3 mps 741 mmHg 85%
    07:00 +17°C° 0 mm 3 mps 741 mmHg 80%
    08:00 +19°C° 0 mm 4 mps 741 mmHg 76%
    09:00 +20°C° 0 mm 4 mps 741 mmHg 70%
    10:00 +21°C° 0 mm 4 mps 741 mmHg 65%
    11:00 +23°C° 0 mm 4 mps 741 mmHg 60%
    12:00 +23°C° 0 mm 4 mps 741 mmHg 59%
    13:00 +23°C° 0 mm 4 mps 741 mmHg 58%
    14:00 +25°C° 0 mm 4 mps 741 mmHg 58%
    15:00 +25°C° 0.1 mm 3 mps 741 mmHg 62%
    16:00 +25°C° 0.1 mm 3 mps 740 mmHg 66%
    17:00 +24°C° 0.1 mm 2 mps 740 mmHg 70%
    18:00 +21°C° 0.1 mm 2 mps 740 mmHg 75%
    19:00 +19°C° 0.1 mm 2 mps 740 mmHg 81%
    20:00 +17°C° 0.1 mm 2 mps 740 mmHg 86%
    21:00 +17°C° 0 mm 2 mps 740 mmHg 88%
    22:00 +16°C° 0 mm 2 mps 740 mmHg 90%
    23:00 +16°C° 0 mm 2 mps 740 mmHg 91%

    Day after tomorrow, 22 July, Monday

    Time Temperature Precipitation Wind Pressure Humidity
    00:00 +15°C° 0 mm 2 mps 740 mmHg 92%
    01:00 +15°C° 0 mm 2 mps 740 mmHg 93%
    02:00 +15°C° 0 mm 2 mps 740 mmHg 94%
    03:00 +15°C° 0 mm 2 mps 740 mmHg 94%
    04:00 +15°C° 0 mm 2 mps 740 mmHg 94%
    05:00 +15°C° 0 mm 1 mps 740 mmHg 94%
    06:00 +17°C° 0 mm 2 mps 740 mmHg 89%
    07:00 +18°C° 0 mm 2 mps 740 mmHg 85%
    08:00 +20°C° 0 mm 2 mps 740 mmHg 80%
    09:00 +21°C° 0 mm 2 mps 740 mmHg 74%
    10:00 +23°C° 0 mm 2 mps 740 mmHg 69%
    11:00 +24°C° 0 mm 2 mps 740 mmHg 63%
    12:00 +25°C° 0 mm 2 mps 740 mmHg 60%
    13:00 +25°C° 0 mm 2 mps 740 mmHg 57%
    14:00 +26°C° 0 mm 1 mps 739 mmHg 55%
    15:00 +26°C° 0 mm 1 mps 739 mmHg 56%
    16:00 +26°C° 0 mm 1 mps 739 mmHg 58%
    17:00 +26°C° 0 mm 1 mps 739 mmHg 59%
    18:00 +24°C° 0 mm 1 mps 739 mmHg 64%
    19:00 +20°C° 0 mm 0 mps 739 mmHg 69%
    20:00 +18°C° 0 mm 0 mps 739 mmHg 75%
    21:00 +19°C° 0 mm 1 mps 739 mmHg 75%
    22:00 +19°C° 0 mm 1 mps 739 mmHg 76%
    23:00 +19°C° 0 mm 1 mps 739 mmHg 77%

    23 July, Tuesday

    Time Temperature Precipitation Wind Pressure Humidity
    00:00 +18°C° 0 mm 1 mps 739 mmHg 77%
    01:00 +18°C° 0 mm 1 mps 738 mmHg 77%
    02:00 +18°C° 0 mm 1 mps 738 mmHg 77%
    03:00 +18°C° 0 mm 1 mps 738 mmHg 79%
    04:00 +19°C° 0 mm 1 mps 738 mmHg 80%
    05:00 +19°C° 0 mm 1 mps 738 mmHg 81%
    06:00 +19°C° 0 mm 2 mps 738 mmHg 80%
    07:00 +20°C° 0 mm 2 mps 738 mmHg 78%
    08:00 +21°C° 0 mm 3 mps 738 mmHg 77%
    09:00 +22°C° 0.1 mm 3 mps 738 mmHg 74%
    10:00 +24°C° 0.1 mm 3 mps 738 mmHg 71%
    11:00 +25°C° 0.1 mm 4 mps 738 mmHg 68%
    12:00 +25°C° 0.4 mm 4 mps 738 mmHg 68%
    13:00 +25°C° 0.4 mm 4 mps 738 mmHg 68%
    14:00 +25°C° 0.4 mm 4 mps 737 mmHg 68%
    15:00 +24°C° 1.3 mm 3 mps 737 mmHg 74%
    16:00 +22°C° 1.3 mm 3 mps 737 mmHg 81%
    17:00 +21°C° 1.3 mm 2 mps 737 mmHg 88%
    18:00 +20°C° 0.2 mm 2 mps 737 mmHg 90%
    19:00 +19°C° 0.2 mm 2 mps 737 mmHg 92%
    20:00 +18°C° 0.2 mm 2 mps 737 mmHg 95%
    21:00 +18°C° 0.1 mm 3 mps 737 mmHg 95%
    22:00 +18°C° 0.1 mm 3 mps 738 mmHg 95%
    23:00 +18°C° 0.1 mm 3 mps 738 mmHg 95%

    24 July, Wednesday

    Time Temperature Precipitation Wind Pressure Humidity
    00:00 +18°C° 0.2 mm 3 mps 738 mmHg 95%
    01:00 +18°C° 0.2 mm 3 mps 738 mmHg 96%
    02:00 +18°C° 0.2 mm 4 mps 738 mmHg 96%
    03:00 +18°C° 0.1 mm 3 mps 738 mmHg 96%
    04:00 +18°C° 0.1 mm 3 mps 738 mmHg 96%
    05:00 +18°C° 0.1 mm 3 mps 738 mmHg 96%
    06:00 +19°C° 0 mm 3 mps 738 mmHg 94%
    07:00 +20°C° 0 mm 3 mps 738 mmHg 91%
    08:00 +21°C° 0 mm 3 mps 739 mmHg 89%
    09:00 +21°C° 0.1 mm 3 mps 739 mmHg 85%
    10:00 +22°C° 0.1 mm 3 mps 739 mmHg 82%
    11:00 +24°C° 0.1 mm 2 mps 739 mmHg 79%
    12:00 +25°C° 1 mm 3 mps 739 mmHg 77%
    13:00 +25°C° 1 mm 3 mps 739 mmHg 75%
    14:00 +26°C° 1 mm 3 mps 739 mmHg 74%
    15:00 +25°C° 0.6 mm 3 mps 739 mmHg 75%
    16:00 +25°C° 0.6 mm 2 mps 739 mmHg 77%
    17:00 +25°C° 0.6 mm 2 mps 739 mmHg 78%
    18:00 +24°C° 0.3 mm 2 mps 739 mmHg 81%
    19:00 +21°C° 0.3 mm 2 mps 739 mmHg 85%
    20:00 +20°C° 0.3 mm 2 mps 739 mmHg 88%
    21:00 +20°C° 0 mm 1 mps 739 mmHg 89%
    22:00 +20°C° 0 mm 1 mps 739 mmHg 89%
    23:00 +19°C° 0 mm 1 mps 739 mmHg 90%

    25 July, Thursday

    Time Temperature Precipitation Wind Pressure Humidity
    00:00 +19°C° 0 mm 1 mps 739 mmHg 90%
    01:00 +19°C° 0 mm 1 mps 739 mmHg 91%
    02:00 +19°C° 0 mm 1 mps 740 mmHg 91%
    03:00 +19°C° 0 mm 1 mps 740 mmHg 91%
    04:00 +19°C° 0 mm 1 mps 740 mmHg 91%
    05:00 +20°C° 0 mm 1 mps 740 mmHg 91%
    06:00 +21°C° 0 mm 1 mps 740 mmHg 86%
    07:00 +23°C° 0 mm 1 mps 740 mmHg 81%
    08:00 +24°C° 0 mm 1 mps 740 mmHg 77%
    09:00 +25°C° 0.9 mm 1 mps 740 mmHg 72%
    10:00 +26°C° 0.9 mm 1 mps 740 mmHg 68%
    11:00 +27°C° 0.9 mm 1 mps 740 mmHg 64%
    12:00 +27°C° 0.5 mm 2 mps 740 mmHg 62%
    13:00 +28°C° 0.5 mm 2 mps 740 mmHg 60%
    14:00 +28°C° 0.5 mm 2 mps 740 mmHg 59%
    15:00 +28°C° 0.1 mm 2 mps 740 mmHg 61%
    16:00 +28°C° 0.1 mm 1 mps 740 mmHg 64%
    17:00 +28°C° 0.1 mm 1 mps 740 mmHg 67%
    18:00 +26°C° 0.6 mm 1 mps 740 mmHg 72%
    19:00 +24°C° 0.6 mm 2 mps 740 mmHg 77%
    20:00 +23°C° 0.6 mm 2 mps 740 mmHg 83%
    21:00 +22°C° 0.2 mm 1 mps 740 mmHg 85%
    22:00 +21°C° 0.2 mm 1 mps 740 mmHg 87%
    23:00 +20°C° 0.2 mm 1 mps 740 mmHg 89%
    Show more